Location: Unnamed
(42.1164°N, 2.7652°E)
Time: 06:55:12
(UTC+02:00)

X-37B - Pass Details

Date: 01 August 2021
Orbit: 381 x 393 km, 45.0° (Epoch: 29 August)

Event Time Altitude Azimuth Distance (km) Brightness Sun altitude
Exits shadow 05:31:42 19° 207° (SSW) 986 2.1 -11.9°
Maximum altitude 05:33:28 35° 151° (SSE) 635 1.6 -11.7°
Drops below altitude 10° 05:36:22 10° 83° (E) 1,397 4.4 -11.3°
Sets 05:38:32 0° 74° (ENE) 2,254 5.9 -10.9°
